Content
SEND FEEDBACK

Daily
Averages
Monthly
Summary
United States of America

NEW YORK - CENTRAL PARK, NEW YORK


Home > North America > United States > New York
Elevation: 4 meters     Latitude: 40 47N     Longitude: 073 58W

WEATHER
 
SELECT A DAY
Number of Records: 148,328;   Date Range: 11/1/95 - 9/18/14
 
SHARE

PRINT THIS DATA

[ ← Previous Day ]
WEATHER ALMANAC - 11 FEBRUARY, 2013
[ Next Day → ]
[ °F ]   °C
Weather ElementAverageHighLow
Temperature5.3 °C7.2 °C (6:51 pm)1.1 °C (1:51 am)
Dewpoint4.1 °C6.1 °C (6:42 pm)-5 °C (1:51 am)
Humidity92.2 %100 % (9:47 am)64 % (1:51 am)
Barometer1012.5 hPa1026.1 hPa (1:51 am)1004.7 hPa (7:51 pm)
Wind Speed5.5 km/h13 km/h (8:28 am)
Weather ElementAverage
Visibility5.1 km
Wind DirectionE (88 °)

Weather ElementTotal
Precipitation24.13 mm
Heating Degree Days14.2 (Base 18.3)
Averaged from 50 records on 11 February, 2013
WEATHER CONDITIONS BREAKOUT
WIND DIRECTION BREAKOUT
WEATHER BY HOUR - 11 FEBRUARY, 2013
[ °F ]   °C
Local TimeTemperatureDewpointHumidityBarometerVisibilityWind DirectionWind SpeedGust SpeedPrecipitationEventsConditions
1:51 AM1.1 °C-5 °C64 %1026.1 hPa16.1 kmVariable11.1 km/hPartly Cloudy
2:51 AM2.2 °C-3.3 °C67 %1024.4 hPa16.1 kmVariable9.3 km/hPartly Cloudy
3:51 AM2.8 °C-1.7 °C73 %1023.7 hPa16.1 kmVariable5.6 km/hOvercast
4:51 AM3.3 °C0 °C79 %1022.4 hPa16.1 kmSSE (160°)11.1 km/h0 mmOvercast
5:51 AM3.3 °C1.1 °C86 %1021.3 hPa11.3 kmCalm0.25 mmRainLight Rain
6:31 AM3.3 °C2.2 °C93 %1021 hPa6.4 kmVariable7.4 km/h1.02 mmRainLight Rain
6:51 AM3.9 °C2.2 °C89 %1020 hPa6.4 kmSSE (160°)11.1 km/h2.03 mmRainLight Rain
7:06 AM3.9 °C2.8 °C93 %1020.3 hPa6.4 kmVariable7.4 km/h0.25 mmRainLight Rain
7:44 AM3.9 °C2.8 °C93 %1019 hPa4 kmVariable5.6 km/h1.27 mmRainLight Rain
7:51 AM3.9 °C2.8 °C93 %1018.3 hPa3.2 kmVariable5.6 km/h1.52 mmRainLight Rain
8:05 AM3.9 °C3.3 °C96 %1018.3 hPa2.9 kmVariable5.6 km/h0.76 mmRainRain
8:28 AM4.4 °C3.3 °C93 %1017.6 hPa2.9 kmSE (140°)13 km/h2.29 mmRainLight Rain
8:51 AM5 °C3.9 °C93 %1016.6 hPa1.6 kmNorth4.32 mmRainRain
9:19 AM5 °C4.4 °C96 %1016.9 hPa1.6 kmVariable5.6 km/h1.78 mmRainLight Rain
9:47 AM6 °C6 °C100 %1016.3 hPa4 kmSouth (180°)5.6 km/h2.79 mmRainLight Rain
9:51 AM6.1 °C5.6 °C97 %1015.6 hPa3.2 kmCalm2.79 mmRainLight Rain
10:08 AM6.1 °C5 °C93 %1015.6 hPa0.8 kmWNW (290°)5.6 km/h0.51 mmFog-RainLight Rain
10:28 AM5.6 °C4.4 °C92 %1015.2 hPa1.9 kmNW (310°)5.6 km/h1.02 mmRainLight Rain
10:51 AM5.6 °C4.4 °C92 %1014.6 hPa1.9 kmWNW (300°)5.6 km/h1.27 mmOvercast
11:03 AM5 °C4.4 °C96 %1014.9 hPa1.3 kmNW (310°)5.6 km/hOvercast
11:33 AM4.4 °C3.3 °C93 %1014.2 hPa1.3 kmCalmOvercast
11:51 AM4.4 °C3.9 °C97 %1013.2 hPa0.8 kmCalm0.25 mmFog-RainLight Rain
12:18 PM5 °C4.4 °C96 %1013.2 hPa1.9 kmCalm0 mmOvercast
12:25 PM5.6 °C5 °C96 %1012.9 hPa1.6 kmCalm0 mmOvercast
12:51 PM6.1 °C5 °C93 %1011.2 hPa1.6 kmCalm0 mmOvercast
1:28 PM6.1 °C5 °C93 %1010.5 hPa4.8 kmWest (270°)9.3 km/hOvercast
1:51 PM5.6 °C4.4 °C92 %1009.8 hPa6.4 kmWSW (250°)13 km/hOvercast
2:06 PM5.6 °C4.4 °C92 %1010.2 hPa4 kmCalmOvercast
2:19 PM5.6 °C5 °C96 %1010.2 hPa2.4 kmCalmOvercast
2:39 PM5.6 °C5 °C96 %1009.5 hPa2.4 kmNorthOvercast
2:46 PM6 °C5 °C93 %1009.5 hPa3.2 kmCalmOvercast
2:51 PM5.6 °C5 °C96 %1008.8 hPa3.2 kmWest (280°)9.3 km/hOvercast
3:51 PM6.1 °C5 °C93 %1007.1 hPa4 kmWest (270°)11.1 km/hOvercast
4:29 PM6.1 °C5.6 °C97 %1007.1 hPa2.4 kmWNW (300°)5.6 km/hOvercast
4:51 PM5.6 °C5 °C96 %1006.4 hPa2.4 kmCalmOvercast
5:51 PM6.1 °C5.6 °C97 %1005.8 hPa3.2 kmCalmOvercast
6:42 PM6.7 °C6.1 °C96 %1006.1 hPa2.9 kmNorthOvercast
6:51 PM7.2 °C6.1 °C93 %1005.1 hPa3.2 kmCalmOvercast
6:58 PM6.7 °C6.1 °C96 %1005.8 hPa2.4 kmCalmOvercast
7:51 PM6.7 °C6.1 °C96 %1004.7 hPa2.9 kmCalmOvercast
8:37 PM6.7 °C6.1 °C96 %1005.4 hPa2.9 kmWNW (290°)7.4 km/hOvercast
8:51 PM6.7 °C6.1 °C96 %1004.7 hPa1.9 kmVariable5.6 km/hOvercast
9:46 PM6 °C6 °C100 %1006.1 hPa4 kmNW (310°)9.3 km/hOvercast
9:51 PM6.1 °C5.6 °C97 %1005.4 hPa4 kmWNW (300°)9.3 km/hOvercast
10:16 PM6.1 °C5 °C93 %1006.4 hPa4.8 kmVariable5.6 km/hOvercast
10:44 PM6.1 °C5 °C93 %1006.8 hPa9.7 kmVariable11.1 km/hOvercast
10:51 PM6.1 °C5 °C93 %1005.8 hPa11.3 kmVariable7.4 km/hOvercast
11:10 PM6.1 °C5 °C93 %1007.1 hPa11.3 kmVariable9.3 km/hOvercast
11:28 PM6.1 °C4.4 °C89 %1007.1 hPa12.9 kmVariable7.4 km/hMostly Cloudy
11:51 PM6.7 °C4.4 °C85 %1006.4 hPa14.5 kmWest (280°)7.4 km/hScattered Clouds
Hourly data recorded from KNYC, located 0 kilometers away from New York - Central Park, New York







STORIES FROM OUR PARTNERS